Theta_e
329 331 333 331 330 333 335 336 351 352 351 353 352 351 352 349 341 340 340 340 341 342 342 343 343 343 343 344 345 347 339 342 345 348 350 350 351 350 347 338 342 343 344 343
321 321 323 330 330 330 330 330 331 345 346 348 349 351 353 346 341 341 340 340 340 341 341 342 343 343 343 343 344 346 344 342 345 348 350 351 352 349 349 338 342 345 345 346
319 321 322 322 323 327 329 329 332 342 347 348 349 352 354 351 342 341 339 340 340 341 342 342 344 344 343 344 345 345 344 347 343 346 349 351 351 350 350 348 340 346 348 351
314 316 318 318 319 321 324 328 329 339 345 346 345 351 357 354 350 340 338 339 342 341 341 342 343 343 344 344 344 345 344 348 345 348 349 349 352 351 350 351 349 339 348 350
314 317 316 316 317 317 318 321 324 330 342 342 342 346 345 354 355 345 340 339 342 340 341 341 341 341 342 342 343 344 346 348 347 346 348 349 351 352 350 351 349 347 342 349
313 317 316 316 317 317 318 317 318 325 338 344 341 341 340 357 355 351 343 341 342 343 340 340 339 339 341 341 341 344 346 348 349 346 349 351 352 350 351 352 352 348 347 343
314 314 314 316 316 316 316 313 316 324 332 343 335 337 338 349 352 351 347 345 343 342 341 339 339 340 341 341 341 342 344 347 349 346 350 350 352 351 350 351 352 348 347 346
318 318 318 319 318 315 316 314 316 327 328 329 330 337 338 340 348 350 350 348 346 342 344 342 341 340 340 340 341 343 346 345 347 344 349 351 351 350 352 351 350 348 347 341
319 319 320 320 321 317 316 314 313 316 317 324 328 331 330 334 340 348 350 350 348 344 344 344 342 341 341 340 341 344 345 346 345 343 349 351 353 350 351 353 352 351 349 346
319 318 317 321 320 319 317 315 314 314 322 322 327 331 333 333 344 349 350 350 350 348 345 345 343 343 342 342 343 344 345 347 344 343 346 351 352 351 351 349 350 349 350 347
316 315 317 318 319 320 319 319 317 313 317 321 324 329 327 331 336 346 350 350 350 349 347 345 345 345 344 344 345 346 346 348 347 343 340 347 349 350 349 349 352 350 350 349
317 311 313 316 317 317 319 317 316 319 317 321 324 328 328 337 337 339 350 348 351 350 349 346 345 346 346 346 346 346 347 348 348 346 340 337 347 345 345 348 355 354 354 352
315 312 312 313 313 315 317 319 318 320 314 319 323 326 331 334 352 350 352 352 351 352 350 348 345 346 346 347 347 347 348 348 348 348 346 339 339 344 346 346 354 354 353 351
315 310 312 313 315 316 318 320 320 320 315 317 319 325 327 339 355 350 349 350 351 352 352 351 346 345 346 346 346 346 347 348 349 348 348 345 338 337 339 342 348 351 351 348
311 313 315 315 316 318 319 320 321 327 322 316 319 318 325 344 351 347 348 348 349 347 347 348 351 349 345 345 346 347 346 347 348 349 348 346 345 342 337 336 336 339 345 350
309 311 312 314 315 317 318 319 326 330 335 339 333 343 345 341 345 343 341 343 343 344 349 347 349 351 346 345 345 346 347 346 346 347 346 345 345 346 345 338 336 337 337 340
309 308 309 311 313 315 317 328 331 330 334 337 339 337 344 342 337 339 341 339 341 340 347 347 348 348 349 346 346 345 346 347 347 346 346 345 345 346 347 345 341 340 339 339
310 308 308 312 313 314 315 326 327 326 331 334 335 340 341 339 338 338 339 339 339 338 335 338 338 346 352 351 347 347 346 347 347 347 346 345 346 347 347 348 349 347 344 343
312 310 309 312 311 312 314 321 327 327 330 331 336 339 337 337 336 334 336 337 339 340 338 339 340 344 345 352 355 356 352 348 347 350 352 352 350 349 348 349 351 351 351 349
312 312 310 310 313 316 323 326 328 327 327 331 334 336 336 335 335 334 335 335 337 338 339 340 341 339 343 347 349 353 354 352 351 351 351 351 351 351 351 351 352 353 353 353
313 314 316 312 312 311 323 322 326 325 326 330 330 335 335 336 333 334 334 334 334 335 335 337 338 338 339 342 345 348 349 341 339 348 345 342 342 350 342 345 352 354 354 353
315 314 313 315 314 313 321 323 327 325 329 326 327 334 335 334 334 334 334 334 333 333 333 334 335 336 337 338 340 343 344 344 346 348 349 349 349 350 345 347 350 349 350 350
315 313 314 314 317 320 320 321 321 325 326 329 324 328 333 333 334 334 336 335 333 332 333 333 333 335 336 336 337 338 340 341 342 344 344 344 344 345 345 345 345 346 346 347
314 316 314 314 314 315 317 320 323 325 327 325 325 327 326 331 331 333 332 332 331 331 330 331 331 331 329 332 335 337 338 338 340 341 341 341 340 345 346 348 346 345 345 344
316 316 315 313 312 314 315 321 323 323 325 328 329 326 329 329 330 330 330 330 330 330 330 328 326 326 324 322 331 334 333 335 339 334 332 338 339 341 340 339 337 336 336 340
317 316 318 317 314 313 315 316 320 322 324 326 327 326 325 321 324 326 329 329 329 328 328 328 328 327 327 326 325 321 328 332 332 330 329 330 338 340 338 336 334 332 331 331
Wind_Speed
6 4 4 8 8 11 10 10 10 7 10 10 19 11 16 19 27 27 31 28 33 39 39 37 38 33 32 28 25 19 22 24 27 26 21 20 19 18 15 15 26 28 23 21
6 4 7 6 10 11 10 7 9 9 10 10 8 12 13 21 29 35 34 31 33 39 40 39 39 37 37 31 28 24 24 24 30 27 26 22 23 19 16 18 22 24 23 19
4 7 11 10 9 12 15 4 6 7 4 11 8 6 9 17 22 28 33 36 32 43 44 43 42 40 38 35 32 27 26 23 28 31 27 21 20 21 21 20 23 25 23 18
4 7 6 10 7 4 9 13 10 6 3 5 7 5 6 17 18 21 29 32 33 42 48 47 44 42 40 37 34 31 29 27 30 29 28 24 22 23 26 24 18 25 26 21
9 5 7 8 6 6 10 16 12 10 6 1 2 1 8 14 19 16 29 36 37 43 51 51 49 44 42 39 37 33 33 30 28 30 30 27 23 23 22 22 21 22 25 25
8 8 4 5 12 9 12 12 12 4 5 4 8 7 11 10 27 23 31 37 41 41 52 53 50 46 45 42 38 34 36 35 31 34 32 28 24 24 25 24 21 21 23 28
7 6 7 3 8 12 3 6 5 4 1 6 11 8 11 18 22 26 30 44 46 44 49 53 53 52 50 47 43 37 36 39 35 39 36 30 28 28 27 27 25 23 22 24
3 7 5 6 1 9 12 8 5 5 3 7 6 7 14 12 23 39 46 51 44 45 48 51 56 56 53 50 46 40 37 39 36 43 40 33 30 30 27 27 29 27 21 17
4 4 9 8 6 2 9 3 9 5 6 5 8 8 11 8 9 27 36 38 42 45 43 51 54 56 55 52 49 44 39 37 40 45 41 36 31 33 32 24 29 29 24 15
3 5 5 10 7 7 1 6 4 2 5 12 5 6 6 7 6 19 24 35 41 45 40 49 50 56 56 53 49 46 40 35 39 42 44 41 36 36 34 26 26 30 23 19
1 3 7 5 2 3 10 7 5 4 6 9 11 9 8 9 4 13 15 34 44 44 47 48 52 54 57 54 51 48 45 39 36 39 43 43 39 37 35 31 30 29 27 24
2 3 2 8 18 10 8 3 2 5 9 6 4 9 8 7 10 13 16 27 33 42 48 47 52 51 48 52 52 49 48 44 39 36 38 42 39 39 40 34 33 32 29 26
5 3 5 10 8 7 5 12 8 9 3 8 8 13 2 8 9 21 18 14 12 10 21 36 43 47 51 51 54 51 49 47 43 40 35 38 42 41 40 41 35 36 34 29
5 1 4 4 8 9 9 14 12 5 5 9 9 12 7 7 7 12 28 21 17 11 8 18 21 40 53 54 54 54 50 47 47 43 40 38 39 39 41 44 42 40 37 31
4 4 2 8 11 8 11 14 14 12 13 7 18 15 11 8 13 4 3 31 20 11 10 5 13 26 39 50 46 52 51 49 48 46 43 40 35 36 38 40 41 43 42 41
2 4 5 6 9 7 15 15 10 6 11 6 9 2 4 2 32 18 4 8 25 19 13 8 2 6 39 48 48 43 48 50 48 46 43 38 35 34 34 36 38 39 41 43
4 3 3 8 6 15 13 3 3 6 8 9 6 7 7 3 8 13 14 13 10 12 12 11 12 2 23 45 50 51 48 47 49 45 44 42 39 37 33 29 33 34 34 34
7 4 4 9 3 7 7 2 2 9 13 15 16 10 7 5 15 19 14 19 15 16 15 12 15 1 14 29 40 48 46 46 46 47 46 43 41 39 37 34 31 31 33 31
6 4 4 4 5 12 12 9 2 5 7 18 16 5 8 7 13 21 18 17 13 12 15 12 10 8 5 9 16 17 26 31 38 39 39 40 40 39 37 37 34 31 31 32
2 4 4 1 3 4 4 12 16 14 2 18 24 17 4 14 4 3 13 16 19 15 16 13 15 14 4 7 9 17 22 19 13 25 28 21 18 27 31 32 33 33 33 31
4 4 3 4 4 6 6 26 20 4 4 11 16 12 19 9 5 9 14 16 15 16 16 15 10 14 16 15 10 7 13 14 22 14 23 20 30 30 26 30 34 34 31 29
3 1 3 3 3 7 12 7 4 2 1 16 17 12 13 16 13 16 15 17 18 19 18 16 14 12 18 20 14 16 17 13 12 11 9 11 18 23 11 29 25 17 11 17
3 5 3 5 4 4 4 1 8 8 10 7 13 7 9 13 13 14 12 15 17 18 19 18 19 18 17 17 17 15 13 6 4 4 6 5 3 4 5 8 7 5 5 7
4 3 3 2 1 5 7 4 4 6 6 14 16 13 16 10 19 22 20 20 19 17 18 16 17 18 18 15 14 17 15 7 8 9 7 4 6 6 6 6 5 6 6 10
4 3 3 4 10 13 13 1 4 5 4 13 16 17 19 17 15 19 19 17 13 13 13 15 17 19 20 19 14 14 15 17 15 13 11 7 9 14 11 7 8 7 5 2
5 5 3 4 8 10 8 10 1 7 8 11 21 21 16 17 18 14 15 17 15 14 12 13 13 13 15 18 19 16 12 9 9 11 15 20 11 10 12 11 11 11 13 14
Wind_Direction
327 66 220 247 246 265 267 278 243 229 207 172 217 230 189 187 182 183 192 200 189 184 179 181 184 189 190 194 196 199 182 185 180 171 176 178 181 189 182 173 170 169 170 172
2 305 257 245 261 273 281 283 276 245 207 197 183 215 186 188 190 188 191 202 190 186 183 183 186 190 193 195 199 199 189 186 175 179 179 187 196 193 178 168 173 175 176 180
176 255 307 307 305 303 287 214 269 270 232 198 157 226 197 209 192 198 198 203 194 187 184 184 187 190 192 196 199 202 197 195 191 183 183 184 194 202 196 183 187 188 187 189
233 274 284 301 293 318 305 294 273 232 131 214 160 261 223 203 204 198 200 203 198 188 188 188 190 192 197 198 201 205 202 200 193 188 189 192 192 197 199 193 186 192 197 195
258 302 309 313 267 298 273 292 302 279 211 112 299 180 247 197 215 199 203 202 202 191 190 190 195 198 202 200 201 205 202 200 198 198 194 194 199 199 194 199 194 191 200 201
223 247 201 222 292 283 290 310 320 299 170 211 241 193 255 185 210 205 202 203 205 193 193 195 199 200 201 201 203 204 201 201 200 200 198 198 205 208 203 203 209 205 200 201
334 299 300 330 313 309 110 45 322 329 260 225 233 232 237 200 214 204 196 203 201 197 194 195 196 199 201 199 203 204 205 203 202 200 201 202 206 214 216 217 212 207 211 213
36 343 34 332 303 270 282 157 175 288 296 287 256 230 260 195 213 210 200 199 197 196 194 194 197 200 203 202 203 205 206 206 202 199 202 203 206 216 213 213 217 215 213 204
339 274 303 301 344 36 302 213 205 224 244 284 250 281 293 251 248 201 197 196 193 195 192 195 196 199 204 204 206 206 206 209 207 202 202 206 208 215 215 220 219 223 219 223
268 296 275 300 338 309 222 273 342 347 252 265 254 254 235 311 195 197 191 194 196 197 196 193 193 198 206 209 209 209 209 208 205 207 206 208 210 214 216 218 219 217 219 217
82 122 288 355 315 307 333 324 329 273 182 244 276 267 212 251 218 172 215 204 197 194 196 194 195 198 207 209 210 211 209 209 206 209 210 212 213 216 219 218 214 216 224 224
281 152 319 258 280 259 223 67 81 347 308 287 214 259 281 190 152 141 79 227 222 199 195 199 194 195 194 204 210 213 213 211 210 208 211 213 212 215 218 216 212 214 221 225
323 339 344 339 335 19 34 329 321 298 287 264 251 257 240 63 10 114 68 61 166 218 214 197 191 193 195 202 211 214 215 214 213 210 210 213 215 217 219 217 214 214 224 230
18 76 156 219 254 298 296 317 309 296 292 284 283 276 243 117 87 73 110 88 98 147 190 191 199 204 198 201 209 216 217 218 215 214 214 214 216 218 220 220 221 221 224 231
79 253 281 298 298 291 304 313 316 312 275 232 289 298 267 137 143 123 189 128 109 116 111 169 233 228 206 201 203 215 219 219 218 216 217 219 220 221 221 224 225 227 229 231
342 261 4 284 298 314 309 301 292 343 345 328 296 283 11 61 121 114 92 59 106 108 87 73 314 271 207 207 204 208 220 222 221 220 222 221 217 221 224 225 226 227 230 231
179 206 76 269 14 330 299 292 337 271 49 331 313 332 159 39 83 105 124 147 141 77 126 104 37 356 197 206 210 212 218 223 223 222 224 224 223 224 225 227 227 228 230 231
201 178 149 267 346 263 252 296 40 341 32 4 342 10 36 28 84 85 113 113 115 107 87 152 267 193 172 189 196 209 212 217 223 224 226 229 230 230 233 232 234 234 233 234
161 164 232 200 198 270 301 291 316 62 25 354 336 16 54 53 29 38 54 72 81 78 103 93 166 302 313 165 141 179 202 209 215 217 222 228 234 235 238 241 243 242 240 238
52 128 169 159 188 261 292 331 327 295 330 2 1 8 331 11 73 351 52 68 68 68 76 80 107 187 327 41 129 149 143 130 159 208 216 215 245 252 246 245 249 252 249 248
314 317 251 264 222 263 339 316 313 162 213 43 359 23 47 59 74 91 70 72 79 77 71 69 79 80 66 66 95 177 192 226 290 235 234 238 257 258 307 268 249 239 241 242
215 274 284 306 202 254 4 1 34 320 232 92 15 28 65 92 92 87 84 83 77 79 83 77 80 67 66 66 76 92 111 134 178 188 191 206 230 249 244 256 255 257 264 231
292 193 224 191 249 318 10 158 311 317 294 134 123 99 102 113 86 84 94 87 82 81 79 80 73 69 62 64 69 78 69 71 66 87 101 123 140 184 202 228 229 223 221 250
281 192 227 28 285 273 311 336 230 282 260 127 127 122 107 51 88 93 91 92 85 83 79 72 67 62 57 57 64 79 81 83 92 88 82 78 88 93 112 124 107 103 129 135
243 287 225 255 279 287 272 212 168 246 235 158 148 134 129 124 97 98 92 84 87 76 66 54 52 51 51 56 70 81 88 89 102 89 70 64 76 76 68 59 58 61 46 65
200 219 226 229 282 247 263 282 220 255 239 168 134 125 136 136 123 105 96 96 93 86 70 61 52 50 56 51 55 51 57 71 74 83 78 72 89 87 65 65 60 68 67 70